GW4297 Weather Reports


time (UTC)temp
C
wind
direction
speed
KPH
gust
KPH
rain 1hr
cm
rain 24hr
cm
rain mn
cm
humidity
%
barometer
mb
20260505063307 11 164 4.8 4.8 0.00 0.00 2.62 96 1010.0
20260505063021 11 198 4.8 4.8 0.00 0.00 2.62 96 1010.0
20260505062537 11 186 9.7 11.3 0.13 0.00 2.62 96 1010.0
20260505061910 11 114 4.8 4.8 0.05 0.00 2.59 96 1010.0
20260505061104 11 106 6.4 6.4 0.20 0.00 2.57 96 1010.0
20260505060951 11 264 4.8 4.8 0.30 0.00 2.57 96 1010.0
20260505060555 11 290 6.4 6.4 0.08 0.00 2.54 96 1010.0
20260505055447 11 215 4.8 4.8 0.00 0.00 2.49 96 1010.0
20260505054510 11 108 6.4 6.4 0.03 0.00 2.49 96 1010.0
20260505053503 11 108 4.8 4.8 0.00 0.00 2.46 96 1010.0
20260505052914 10 78 4.8 4.8 0.00 0.00 2.46 96 1010.0
20260505052356 11 234 14.5 14.5 0.05 0.00 2.46 96 1010.0
20260505052152 11 239 4.8 4.8 0.10 0.00 2.46 96 1010.0
20260505051902 11 198 17.7 19.3 0.00 0.00 2.44 96 1010.0
20260505051410 10 178 4.8 4.8 0.05 0.00 2.44 96 1010.0
20260505050920 11 186 4.8 4.8 0.46 0.00 2.44 96 1010.0
20260505050852 11 230 6.4 6.4 0.05 0.00 2.41 96 1010.0
20260505050424 10 268 6.4 6.4 0.00 0.00 2.39 96 1010.0
20260505041526 10 42 8.0 8.0 0.48 0.00 2.13 96 1010.0
20260505041025 10 185 4.8 4.8 0.08 0.00 2.08 96 1010.0
20260505040532 10 174 4.8 4.8 0.13 0.00 2.06 96 1011.0
20260505040036 11 198 6.4 6.4 0.18 0.00 2.03 96 1011.0
20260505035212 11 68 8.0 8.0 0.28 0.00 1.98 96 1011.0
20260505034609 10 159 6.4 6.4 0.18 0.00 1.93 96 1011.0
20260505034447 10 36 6.4 6.4 0.33 0.00 1.93 96 1011.0
20260505033732 11 201 6.4 6.4 0.10 0.00 1.83 96 1011.0
20260505033718 11 72 6.4 6.4 0.13 0.00 1.83 96 1011.0
20260505033145 10 126 11.3 12.9 0.36 0.00 1.80 96 1011.0
20260505032636 10 174 4.8 4.8 0.05 0.00 1.75 96 1011.0
20260505032144 10 198 6.4 6.4 0.05 0.00 1.73 96 1011.0
20260505031639 10 216 4.8 4.8 0.00 0.00 1.70 96 1011.0
20260505031122 10 168 4.8 4.8 0.18 0.00 1.70 96 1011.0
20260505030545 11 144 4.8 4.8 0.33 0.00 1.68 96 1011.0
20260505030010 10 191 4.8 4.8 0.13 0.00 1.63 95 1011.0
20260505025424 11 36 6.4 6.4 0.25 0.00 1.60 95 1011.0
20260505024918 10 90 11.3 11.3 0.13 0.00 1.55 95 1012.0
20260505024414 10 84 8.0 8.0 0.48 0.00 1.52 95 1012.0
20260505023804 10 228 11.3 12.9 0.48 0.00 1.47 95 1012.0
20260505023101 10 112 6.4 6.4 0.38 0.00 1.40 95 1012.0
20260505022558 10 78 6.4 6.4 0.20 0.00 1.35 95 1012.0
20260505022107 11 88 4.8 4.8 0.33 0.00 1.32 95 1012.0
20260505021554 11 174 6.4 6.4 0.33 0.00 1.27 95 1012.0
20260505021058 11 168 6.4 6.4 0.15 0.00 1.22 95 1012.0
20260505020544 10 126 4.8 4.8 0.61 0.00 1.19 95 1012.0
20260505020015 11 231 4.8 4.8 0.43 0.00 1.14 95 1012.0
20260505015918 11 102 4.8 4.8 0.33 0.00 1.12 95 1012.0
20260505015428 11 180 4.8 4.8 0.36 0.00 1.07 95 1012.0
20260505014931 11 95 4.8 4.8 0.53 0.00 1.02 95 1012.0
20260505014414 11 12 4.8 4.8 0.89 0.00 0.97 95 1012.0
20260505013806 11 36 6.4 6.4 0.30 0.00 0.86 95 1012.0
20260505013054 11 210 6.4 6.4 0.43 0.00 0.81 95 1012.0
20260505012554 11 236 4.8 4.8 0.61 0.00 0.74 95 1012.0
20260505012059 11 78 4.8 4.8 0.28 0.00 0.69 95 1012.0
20260505011834 11 84 6.4 6.4 0.13 0.00 0.66 95 1012.0
20260505011147 11 150 4.8 4.8 0.03 0.00 0.61 95 1012.0
20260505005845 11 174 6.4 6.4 0.03 0.00 0.56 95 1012.0
20260505005136 10 95 4.8 4.8 0.00 0.00 0.53 94 1012.0
20260505004343 10 192 4.8 4.8 0.00 0.00 0.51 94 1012.0
20260505003850 10 96 4.8 4.8 0.13 0.00 0.51 94 1012.0
20260505003128 11 96 4.8 4.8 0.03 0.00 0.48 94 1012.0
20260505002231 11 90 4.8 4.8 0.20 0.00 0.46 94 1012.0
20260505001728 11 186 4.8 4.8 0.10 0.00 0.43 94 1012.0
20260505001213 11 84 6.4 6.4 0.13 0.00 0.41 94 1012.0
20260505000614 11 164 4.8 4.8 0.05 0.00 0.38 94 1012.0
20260505000120 11 78 4.8 4.8 0.00 0.00 0.36 94 1012.0
20260504235554 11 89 6.4 6.4 0.00 0.00 0.36 94 1012.0
20260504235003 11 144 9.7 11.3 0.00 0.00 0.33 94 1012.0
20260504234503 11 114 4.8 4.8 0.00 0.00 0.33 94 1012.0
20260504233852 11 100 6.4 6.4 0.00 0.00 0.33 94 1013.0
20260504232828 11 150 6.4 6.4 0.00 0.00 0.30 94 1013.0
20260504232315 11 204 6.4 6.4 0.13 0.00 0.30 94 1013.0
20260504231748 12 156 4.8 4.8 0.10 0.00 0.28 94 1013.0
20260504231219 12 120 4.8 4.8 0.18 0.00 0.25 94 1013.0
20260504230657 12 118 6.4 6.4 0.20 0.00 0.23 94 1013.0
20260504230157 12 114 4.8 4.8 0.03 0.00 0.20 94 1013.0
20260504224533 12 262 6.4 6.4 0.00 0.00 0.15 94 1013.0
20260504223601 12 144 4.8 4.8 0.18 0.00 0.15 94 1013.0
20260504223031 12 180 4.8 4.8 0.10 0.00 0.10 94 1013.0
20260504221720 12 114 4.8 4.8 0.08 0.00 0.05 93 1013.0
20260504214205 12 138 4.8 4.8 0.18 0.00 0.15 93 1013.0
20260504212516 12 108 6.4 6.4 0.00 0.00 0.10 93 1013.0
20260504210409 12 150 4.8 4.8 0.00 0.00 0.08 92 1013.0
20260504205612 12 210 4.8 4.8 0.00 0.00 0.08 92 1013.0
20260504204740 12 83 4.8 4.8 0.00 0.00 0.05 92 1013.0
20260504203900 12 153 6.4 6.4 0.00 0.00 0.05 92 1013.0
20260504203247 12 256 4.8 4.8 0.00 0.00 0.05 92 1013.0
20260504200858 12 144 6.4 6.4 0.00 0.00 0.03 91 1013.0
20260504195506 12 186 6.4 6.4 0.00 0.00 0.03 91 1013.0
20260504195003 13 159 6.4 6.4 0.00 0.00 0.03 91 1013.0
20260504194328 13 150 4.8 4.8 0.00 0.00 0.03 91 1013.0
20260504192419 13 281 4.8 4.8 0.00 0.00 0.03 90 1013.0
20260504191749 13 56 4.8 4.8 0.00 0.00 0.00 90 1012.0
20260504190905 13 241 4.8 4.8 0.00 0.00 0.00 89 1012.0
20260504190412 13 234 4.8 4.8 0.00 0.00 0.00 89 1012.0
20260504185758 13 96 4.8 4.8 0.00 0.00 0.00 88 1012.0
20260504185251 13 317 8.0 8.0 0.00 0.00 0.00 88 1012.0
20260504184732 13 174 4.8 4.8 0.00 0.00 0.00 88 1012.0
20260504184228 13 350 8.0 8.0 0.00 0.00 0.00 88 1012.0
20260504183730 13 244 8.0 8.0 0.00 0.00 0.00 88 1012.0
20260504183030 13 245 11.3 12.9 0.00 0.00 0.00 88 1012.0
20260504182455 13 156 4.8 4.8 0.00 0.00 0.00 88 1012.0
20260504181959 13 102 6.4 6.4 0.00 0.00 0.00 87 1012.0
20260504181504 13 252 9.7 9.7 0.00 0.00 0.00 87 1012.0
20260504180951 13 348 4.8 4.8 0.00 0.00 0.00 87 1012.0
20260504180328 13 216 9.7 9.7 0.00 0.00 0.00 86 1012.0
20260504175859 14 277 4.8 4.8 0.00 0.00 0.00 85 1012.0
20260504175405 14 120 4.8 4.8 0.00 0.00 0.00 84 1012.0
20260504174912 14 147 14.5 14.5 0.00 0.00 0.00 84 1012.0
20260504174415 14 126 6.4 6.4 0.00 0.00 0.00 83 1012.0
20260504173845 15 336 4.8 4.8 0.00 0.00 0.00 82 1012.0
20260504173353 15 227 6.4 6.4 0.00 0.00 0.00 83 1012.0
20260504172851 15 102 9.7 9.7 0.00 0.00 0.00 82 1012.0
20260504172348 15 245 4.8 4.8 0.00 0.00 0.00 82 1012.0
20260504171839 15 136 9.7 9.7 0.00 0.00 0.00 80 1012.0
20260504171343 15 18 6.4 6.4 0.00 0.00 0.00 80 1012.0
20260504170633 15 281 6.4 6.4 0.00 0.00 0.00 78 1012.0
20260504170134 16 107 4.8 4.8 0.00 0.00 0.00 76 1012.0
20260504150958 16 120 4.8 4.8 0.00 0.00 0.00 73 1012.0
20260504150455 16 114 6.4 6.4 0.00 0.00 0.00 75 1012.0
20260504140842 16 132 6.4 6.4 0.00 0.00 0.00 72 1012.0
20260504140203 16 164 9.7 11.3 0.00 0.00 0.00 74 1012.0
20260504130518 16 125 4.8 4.8 0.00 0.00 0.00 74 1012.0
20260504110324 16 222 6.4 6.4 0.00 0.00 0.00 73 1013.0
20260504100533 15 354 4.8 4.8 0.00 0.00 0.00 77 1013.0
20260504081642 14 72 6.4 6.4 0.00 0.00 0.00 78 1013.0
20260504081144 13 95 9.7 9.7 0.00 0.00 0.00 81 1013.0
20260504080546 13 67 6.4 6.4 0.00 0.00 0.00 80 1013.0